Time,TemperatureF,DewpointF,PressureIn,WindDirection,WindDirectionDegrees,WindSpeedMPH,WindSpeedGustMPH,Humidity,HourlyPrecipIn,Conditions,Clouds,dailyrainin,SoftwareType,DateUTC
2013-07-29 00:01:00,60.4,34.7,17.72,North,5,0.0,0.0,38,0.00,,---,0.00,VWS V13.01,2013-07-29 04:01:00,
2013-07-29 00:06:00,60.4,34.7,17.72,North,5,0.0,0.0,38,0.00,,---,0.00,VWS V13.01,2013-07-29 04:06:00,
2013-07-29 00:11:00,60.4,34.7,17.72,North,5,0.0,0.0,38,0.00,,---,0.00,VWS V13.01,2013-07-29 04:11:00,
2013-07-29 00:16:00,60.4,34.7,17.72,North,5,0.0,0.0,38,0.00,,---,0.00,VWS V13.01,2013-07-29 04:16:00,
2013-07-29 00:21:00,60.4,34.7,17.72,North,5,0.0,0.0,38,0.00,,---,0.00,VWS V13.01,2013-07-29 04:21:00,
2013-07-29 00:26:00,60.4,34.7,17.72,North,5,0.0,0.0,38,0.00,,---,0.00,VWS V13.01,2013-07-29 04:26:00,
2013-07-29 00:31:00,60.6,34.9,17.72,WNW,287,0.0,0.0,38,0.00,,---,0.00,VWS V13.01,2013-07-29 04:31:00,
2013-07-29 00:36:00,61.2,35.4,17.72,SSW,213,0.0,0.0,38,0.00,,---,0.00,VWS V13.01,2013-07-29 04:36:00,
2013-07-29 00:41:00,61.7,35.2,17.72,SSW,203,0.0,0.0,37,0.00,,---,0.00,VWS V13.01,2013-07-29 04:41:00,
2013-07-29 00:46:00,61.9,35.3,17.72,WSW,237,0.0,0.0,37,0.00,,---,0.00,VWS V13.01,2013-07-29 04:46:00,
2013-07-29 00:52:00,62.2,35.0,17.72,WSW,252,0.0,0.0,36,0.00,,---,0.00,VWS V13.01,2013-07-29 04:52:00,
2013-07-29 00:57:00,62.2,35.0,17.72,SW,234,0.0,0.0,36,0.00,,---,0.00,VWS V13.01,2013-07-29 04:57:00,
2013-07-29 01:02:00,62.2,35.0,17.72,WSW,238,0.0,0.0,36,0.00,,---,0.00,VWS V13.01,2013-07-29 05:02:00,
2013-07-29 01:07:00,62.2,34.3,17.72,WSW,238,0.0,0.0,35,0.00,,---,0.00,VWS V13.01,2013-07-29 05:07:00,
2013-07-29 01:12:00,61.9,34.0,17.72,WSW,238,0.0,0.0,35,0.00,,---,0.00,VWS V13.01,2013-07-29 05:12:00,
2013-07-29 01:17:00,61.9,34.0,17.72,WSW,238,0.0,0.0,35,0.00,,---,0.00,VWS V13.01,2013-07-29 05:17:00,
2013-07-29 01:22:00,61.5,33.6,17.72,WSW,238,0.0,0.0,35,0.00,,---,0.00,VWS V13.01,2013-07-29 05:22:00,
2013-07-29 01:27:00,61.2,33.3,17.72,WSW,238,0.0,0.0,35,0.00,,---,0.00,VWS V13.01,2013-07-29 05:27:00,
2013-07-29 01:32:00,60.8,33.0,17.72,WSW,238,0.0,0.0,35,0.00,,---,0.00,VWS V13.01,2013-07-29 05:32:00,
2013-07-29 01:37:00,60.4,32.7,17.72,WSW,238,0.0,0.0,35,0.00,,---,0.00,VWS V13.01,2013-07-29 05:37:00,
2013-07-29 01:42:00,60.3,32.5,17.72,WSW,238,0.0,0.0,35,0.00,,---,0.00,VWS V13.01,2013-07-29 05:42:00,
2013-07-29 01:47:00,60.1,32.4,17.72,WSW,238,0.0,0.0,35,0.00,,---,0.00,VWS V13.01,2013-07-29 05:47:00,
2013-07-29 01:52:00,59.7,32.0,17.72,WSW,238,0.0,0.0,35,0.00,,---,0.00,VWS V13.01,2013-07-29 05:52:00,
2013-07-29 01:57:00,59.5,31.9,17.72,WSW,238,0.0,0.0,35,0.00,,---,0.00,VWS V13.01,2013-07-29 05:57:00,
2013-07-29 02:02:00,59.4,31.7,17.72,WSW,238,0.0,0.0,35,0.00,,---,0.00,VWS V13.01,2013-07-29 06:02:00,
2013-07-29 02:07:00,59.2,31.6,17.72,WSW,238,0.0,0.0,35,0.00,,---,0.00,VWS V13.01,2013-07-29 06:07:00,
2013-07-29 02:12:00,59.0,31.4,17.72,WSW,238,0.0,0.0,35,0.00,,---,0.00,VWS V13.01,2013-07-29 06:12:00,
2013-07-29 02:17:00,58.8,32.0,17.72,WSW,238,0.0,0.0,36,0.00,,---,0.00,VWS V13.01,2013-07-29 06:17:00,
2013-07-29 02:22:00,58.8,32.0,17.72,WSW,238,0.0,0.0,36,0.00,,---,0.00,VWS V13.01,2013-07-29 06:22:00,
2013-07-29 02:27:00,58.6,31.8,17.72,WSW,238,0.0,0.0,36,0.00,,---,0.00,VWS V13.01,2013-07-29 06:27:00,
2013-07-29 02:32:00,58.6,31.8,17.72,WSW,238,0.0,0.0,36,0.00,,---,0.00,VWS V13.01,2013-07-29 06:32:00,
2013-07-29 02:37:00,58.6,32.5,17.72,WSW,238,0.0,0.0,37,0.00,,---,0.00,VWS V13.01,2013-07-29 06:37:00,
2013-07-29 02:42:00,58.6,32.5,17.72,WSW,238,0.0,0.0,37,0.00,,---,0.00,VWS V13.01,2013-07-29 06:42:00,
2013-07-29 02:47:00,58.6,32.5,17.72,WSW,238,0.0,0.0,37,0.00,,---,0.00,VWS V13.01,2013-07-29 06:47:00,
2013-07-29 02:52:00,58.6,32.5,17.72,WSW,238,0.0,0.0,37,0.00,,---,0.00,VWS V13.01,2013-07-29 06:52:00,
2013-07-29 02:57:00,58.6,32.5,17.72,WSW,238,0.0,0.0,37,0.00,,---,0.00,VWS V13.01,2013-07-29 06:57:00,
2013-07-29 03:02:00,58.5,32.3,17.72,WSW,238,0.0,0.0,37,0.00,,---,0.00,VWS V13.01,2013-07-29 07:02:00,
2013-07-29 03:07:00,58.5,32.3,17.72,WSW,238,0.0,0.0,37,0.00,,---,0.00,VWS V13.01,2013-07-29 07:07:00,
2013-07-29 03:12:00,58.3,32.2,17.72,WSW,238,0.0,0.0,37,0.00,,---,0.00,VWS V13.01,2013-07-29 07:12:00,
2013-07-29 03:17:00,58.3,32.8,17.72,WSW,238,0.0,0.0,38,0.00,,---,0.00,VWS V13.01,2013-07-29 07:17:00,
2013-07-29 03:22:00,58.1,32.7,17.72,WSW,238,0.0,0.0,38,0.00,,---,0.00,VWS V13.01,2013-07-29 07:22:00,
2013-07-29 03:27:00,58.1,32.7,17.72,WSW,238,0.0,0.0,38,0.00,,---,0.00,VWS V13.01,2013-07-29 07:27:00,
2013-07-29 03:32:00,58.1,32.7,17.72,WSW,238,0.0,0.0,38,0.00,,---,0.00,VWS V13.01,2013-07-29 07:32:00,
2013-07-29 03:37:00,58.1,32.7,17.72,WSW,238,0.0,0.0,38,0.00,,---,0.00,VWS V13.01,2013-07-29 07:37:00,
2013-07-29 03:42:00,58.1,32.7,17.72,WSW,238,0.0,0.0,38,0.00,,---,0.00,VWS V13.01,2013-07-29 07:42:00,
2013-07-29 03:47:00,58.1,32.7,17.72,WSW,238,0.0,0.0,38,0.00,,---,0.00,VWS V13.01,2013-07-29 07:47:00,
2013-07-29 03:52:00,58.3,33.5,17.72,WSW,238,0.0,0.0,39,0.00,,---,0.00,VWS V13.01,2013-07-29 07:52:00,
2013-07-29 03:57:00,58.3,33.5,17.72,WSW,238,0.0,0.0,39,0.00,,---,0.00,VWS V13.01,2013-07-29 07:57:00,
2013-07-29 04:02:00,58.3,33.5,17.72,WSW,238,0.0,0.0,39,0.00,,---,0.00,VWS V13.01,2013-07-29 08:02:00,
2013-07-29 04:07:00,58.3,33.5,17.72,WSW,238,0.0,0.0,39,0.00,,---,0.00,VWS V13.01,2013-07-29 08:07:00,
2013-07-29 04:12:00,58.5,33.6,17.72,WSW,238,0.0,0.0,39,0.00,,---,0.00,VWS V13.01,2013-07-29 08:12:00,
2013-07-29 04:17:00,58.5,33.6,17.72,WSW,238,0.0,0.0,39,0.00,,---,0.00,VWS V13.01,2013-07-29 08:17:00,
2013-07-29 04:22:00,58.5,33.6,17.72,WSW,238,0.0,0.0,39,0.00,,---,0.00,VWS V13.01,2013-07-29 08:22:00,
2013-07-29 04:27:00,58.5,33.6,17.72,WSW,238,0.0,0.0,39,0.00,,---,0.00,VWS V13.01,2013-07-29 08:27:00,
2013-07-29 04:32:00,58.6,33.8,17.72,WSW,238,0.0,0.0,39,0.00,,---,0.00,VWS V13.01,2013-07-29 08:32:00,
2013-07-29 04:37:00,58.8,33.9,17.72,WSW,238,0.0,0.0,39,0.00,,---,0.00,VWS V13.01,2013-07-29 08:37:00,
2013-07-29 04:42:00,58.8,33.9,17.72,WSW,238,0.0,0.0,39,0.00,,---,0.00,VWS V13.01,2013-07-29 08:42:00,
2013-07-29 04:47:00,59.0,34.1,17.72,WSW,238,0.0,0.0,39,0.00,,---,0.00,VWS V13.01,2013-07-29 08:47:00,
2013-07-29 04:52:00,59.2,34.3,17.72,WSW,238,0.0,0.0,39,0.00,,---,0.00,VWS V13.01,2013-07-29 08:52:00,
2013-07-29 04:57:00,59.4,34.4,17.72,WSW,238,0.0,0.0,39,0.00,,---,0.00,VWS V13.01,2013-07-29 08:57:00,
2013-07-29 05:02:00,59.5,34.6,17.72,WSW,238,0.0,0.0,39,0.00,,---,0.00,VWS V13.01,2013-07-29 09:02:00,
2013-07-29 05:07:00,59.7,34.1,17.72,WSW,238,0.0,0.0,38,0.00,,---,0.00,VWS V13.01,2013-07-29 09:07:00,
2013-07-29 05:12:00,59.9,34.2,17.72,WSW,238,0.0,0.0,38,0.00,,---,0.00,VWS V13.01,2013-07-29 09:12:00,
2013-07-29 05:17:00,60.1,34.4,17.72,WSW,238,0.0,0.0,38,0.00,,---,0.00,VWS V13.01,2013-07-29 09:17:00,
2013-07-29 05:22:00,60.3,34.6,17.72,WSW,238,0.0,0.0,38,0.00,,---,0.00,VWS V13.01,2013-07-29 09:22:00,
2013-07-29 05:27:00,60.3,34.6,17.72,WSW,238,0.0,0.0,38,0.00,,---,0.00,VWS V13.01,2013-07-29 09:27:00,
2013-07-29 05:32:00,60.4,34.1,17.72,WSW,238,0.0,0.0,37,0.00,,---,0.00,VWS V13.01,2013-07-29 09:32:00,
2013-07-29 05:37:00,60.4,34.1,17.72,WSW,238,0.0,0.0,37,0.00,,---,0.00,VWS V13.01,2013-07-29 09:37:00,
2013-07-29 05:42:00,60.6,34.2,17.72,WSW,238,0.0,0.0,37,0.00,,---,0.00,VWS V13.01,2013-07-29 09:42:00,
2013-07-29 05:47:00,60.6,34.2,17.72,WSW,238,0.0,0.0,37,0.00,,---,0.00,VWS V13.01,2013-07-29 09:47:00,
2013-07-29 05:52:00,60.6,33.5,17.72,WSW,238,0.0,0.0,36,0.00,,---,0.00,VWS V13.01,2013-07-29 09:52:00,
2013-07-29 05:57:00,60.6,33.5,17.72,WSW,238,0.0,0.0,36,0.00,,---,0.00,VWS V13.01,2013-07-29 09:57:00,
2013-07-29 06:02:00,60.8,33.0,17.72,WSW,238,0.0,0.0,35,0.00,,---,0.00,VWS V13.01,2013-07-29 10:02:00,
2013-07-29 06:07:00,61.0,33.2,17.72,WSW,238,0.0,0.0,35,0.00,,---,0.00,VWS V13.01,2013-07-29 10:07:00,
2013-07-29 06:12:00,61.0,33.2,17.72,WSW,238,0.0,0.0,35,0.00,,---,0.00,VWS V13.01,2013-07-29 10:12:00,
2013-07-29 06:17:00,61.2,33.3,17.72,WSW,238,0.0,0.0,35,0.00,,---,0.00,VWS V13.01,2013-07-29 10:17:00,
2013-07-29 06:22:00,61.3,32.8,17.72,WSW,238,0.0,0.0,34,0.00,,---,0.00,VWS V13.01,2013-07-29 10:22:00,
2013-07-29 06:28:00,61.3,32.8,17.72,WSW,238,0.0,0.0,34,0.00,,---,0.00,VWS V13.01,2013-07-29 10:28:00,
2013-07-29 06:33:00,61.5,32.9,17.72,WSW,238,0.0,0.0,34,0.00,,---,0.00,VWS V13.01,2013-07-29 10:33:00,
2013-07-29 06:38:00,61.5,32.9,17.72,WSW,238,0.0,0.0,34,0.00,,---,0.00,VWS V13.01,2013-07-29 10:38:00,
2013-07-29 06:43:00,61.5,32.9,17.72,WSW,238,0.0,0.0,34,0.00,,---,0.00,VWS V13.01,2013-07-29 10:43:00,
2013-07-29 06:48:00,61.5,32.9,17.72,West,273,0.0,0.0,34,0.00,,---,0.00,VWS V13.01,2013-07-29 10:48:00,
2013-07-29 06:53:00,61.5,32.9,17.72,West,273,0.0,0.0,34,0.00,,---,0.00,VWS V13.01,2013-07-29 10:53:00,
2013-07-29 06:58:00,61.5,32.9,17.72,West,273,0.0,0.0,34,0.00,,---,0.00,VWS V13.01,2013-07-29 10:58:00,
2013-07-29 07:03:00,61.5,32.9,17.72,West,273,0.0,0.0,34,0.00,,---,0.00,VWS V13.01,2013-07-29 11:03:00,
2013-07-29 07:08:00,61.5,32.9,17.72,West,273,0.0,0.0,34,0.00,,---,0.00,VWS V13.01,2013-07-29 11:08:00,
2013-07-29 07:13:00,61.5,32.2,17.72,WSW,249,0.0,0.0,33,0.00,,---,0.00,VWS V13.01,2013-07-29 11:13:00,
2013-07-29 07:18:00,61.5,32.2,17.72,WSW,249,0.0,0.0,33,0.00,,---,0.00,VWS V13.01,2013-07-29 11:18:00,
2013-07-29 07:23:00,61.3,31.2,17.72,WSW,249,0.0,0.0,32,0.00,,---,0.00,VWS V13.01,2013-07-29 11:23:00,
2013-07-29 07:29:00,61.3,31.2,17.72,WSW,249,0.0,0.0,32,0.00,,---,0.00,VWS V13.01,2013-07-29 11:29:00,
2013-07-29 07:34:00,61.3,30.5,17.72,WSW,249,0.0,0.0,31,0.00,,---,0.00,VWS V13.01,2013-07-29 11:34:00,
2013-07-29 07:39:00,61.3,30.5,17.72,WSW,249,0.0,0.0,31,0.00,,---,0.00,VWS V13.01,2013-07-29 11:39:00,
2013-07-29 07:44:00,61.3,30.5,17.72,WSW,249,0.0,0.0,31,0.00,,---,0.00,VWS V13.01,2013-07-29 11:44:00,
2013-07-29 07:49:00,61.2,30.3,17.72,WSW,249,0.0,0.0,31,0.00,,---,0.00,VWS V13.01,2013-07-29 11:49:00,
2013-07-29 07:54:00,61.2,30.3,17.72,WSW,249,0.0,0.0,31,0.00,,---,0.00,VWS V13.01,2013-07-29 11:54:00,
2013-07-29 07:59:00,61.2,30.3,17.72,WSW,249,0.0,0.0,31,0.00,,---,0.00,VWS V13.01,2013-07-29 11:59:00,
2013-07-29 08:05:00,61.3,30.5,17.72,WSW,249,0.0,0.0,31,0.00,,---,0.00,VWS V13.01,2013-07-29 12:05:00,
2013-07-29 08:10:00,61.3,30.5,17.72,WNW,285,0.0,0.0,31,0.00,,---,0.00,VWS V13.01,2013-07-29 12:10:00,
2013-07-29 08:15:00,61.3,30.5,17.72,WNW,285,0.0,0.0,31,0.00,,---,0.00,VWS V13.01,2013-07-29 12:15:00,
2013-07-29 08:21:00,61.5,30.6,17.72,WNW,285,0.0,0.0,31,0.00,,---,0.00,VWS V13.01,2013-07-29 12:21:00,
2013-07-29 08:26:00,61.5,30.6,17.72,SW,235,2.7,2.7,31,0.00,,---,0.00,VWS V13.01,2013-07-29 12:26:00,
2013-07-29 08:31:00,61.7,30.0,17.72,WSW,244,0.0,0.0,30,0.00,,---,0.00,VWS V13.01,2013-07-29 12:31:00,
2013-07-29 08:36:00,61.7,30.0,17.72,WSW,258,0.0,0.0,30,0.00,,---,0.00,VWS V13.01,2013-07-29 12:36:00,
2013-07-29 08:41:00,61.9,30.9,17.72,West,259,0.0,0.0,31,0.00,,---,0.00,VWS V13.01,2013-07-29 12:41:00,
2013-07-29 08:47:00,62.1,31.1,17.72,NW,304,0.0,0.0,31,0.00,,---,0.00,VWS V13.01,2013-07-29 12:47:00,
2013-07-29 08:52:00,62.2,31.2,17.72,WSW,250,0.0,0.0,31,0.00,,---,0.00,VWS V13.01,2013-07-29 12:52:00,
2013-07-29 08:58:00,62.6,31.6,17.72,South,172,0.0,0.0,31,0.00,,---,0.00,VWS V13.01,2013-07-29 12:58:00,
2013-07-29 09:03:00,63.0,31.9,17.72,WNW,300,0.0,2.2,31,0.00,,---,0.00,VWS V13.01,2013-07-29 13:03:00,
2013-07-29 09:08:00,63.5,32.3,17.72,West,265,3.1,3.1,31,0.00,,---,0.00,VWS V13.01,2013-07-29 13:08:00,
2013-07-29 09:13:00,64.0,32.8,17.72,North,353,0.0,0.0,31,0.00,,---,0.00,VWS V13.01,2013-07-29 13:13:00,
2013-07-29 09:18:00,64.6,32.5,17.72,SSW,192,0.0,0.0,30,0.00,,---,0.00,VWS V13.01,2013-07-29 13:18:00,
2013-07-29 09:23:00,64.9,32.0,17.72,NNW,330,0.0,0.0,29,0.00,,---,0.00,VWS V13.01,2013-07-29 13:23:00,
2013-07-29 09:29:00,65.5,32.4,17.72,East,81,0.0,2.2,29,0.00,,---,0.00,VWS V13.01,2013-07-29 13:29:00,
2013-07-29 09:34:00,65.8,31.9,17.72,SSW,201,0.0,0.0,28,0.00,,---,0.00,VWS V13.01,2013-07-29 13:34:00,
2013-07-29 09:39:00,66.0,32.0,17.72,SSW,200,2.7,2.7,28,0.00,,---,0.00,VWS V13.01,2013-07-29 13:39:00,
2013-07-29 09:44:00,66.0,31.1,17.72,NNW,337,3.1,3.1,27,0.00,,---,0.00,VWS V13.01,2013-07-29 13:44:00,
2013-07-29 09:49:00,65.8,30.0,17.72,NW,304,0.0,0.0,26,0.00,,---,0.00,VWS V13.01,2013-07-29 13:49:00,
2013-07-29 09:54:00,65.8,30.0,17.72,WSW,256,3.6,3.6,26,0.00,,---,0.00,VWS V13.01,2013-07-29 13:54:00,
2013-07-29 09:59:00,66.0,30.2,17.72,WSW,255,5.8,5.8,26,0.00,,---,0.00,VWS V13.01,2013-07-29 13:59:00,
2013-07-29 10:05:00,66.2,28.4,17.72,South,180,0.0,2.7,24,0.00,,---,0.00,VWS V13.01,2013-07-29 14:05:00,
2013-07-29 10:10:00,66.6,28.7,17.72,WSW,241,0.0,3.1,24,0.00,,---,0.00,VWS V13.01,2013-07-29 14:10:00,
2013-07-29 10:15:00,66.7,28.8,17.72,WNW,283,0.0,0.0,24,0.00,,---,0.00,VWS V13.01,2013-07-29 14:15:00,
2013-07-29 10:20:00,67.1,29.1,17.72,SW,233,0.0,0.0,24,0.00,,---,0.00,VWS V13.01,2013-07-29 14:20:00,
2013-07-29 10:25:00,67.5,28.4,17.72,SSW,196,0.0,0.0,23,0.00,,---,0.00,VWS V13.01,2013-07-29 14:25:00,
2013-07-29 10:30:00,67.6,28.5,17.72,West,263,4.9,4.9,23,0.00,,---,0.00,VWS V13.01,2013-07-29 14:30:00,
2013-07-29 10:35:00,67.6,28.5,17.72,WSW,257,0.0,0.0,23,0.00,,---,0.00,VWS V13.01,2013-07-29 14:35:00,
2013-07-29 10:40:00,67.6,28.5,17.72,NW,310,0.0,0.0,23,0.00,,---,0.00,VWS V13.01,2013-07-29 14:40:00,
2013-07-29 10:45:00,67.3,28.2,17.72,NNW,341,3.1,3.1,23,0.00,,---,0.00,VWS V13.01,2013-07-29 14:45:00,
2013-07-29 10:50:00,67.3,28.2,17.72,WNW,290,0.0,0.0,23,0.00,,---,0.00,VWS V13.01,2013-07-29 14:50:00,
2013-07-29 10:55:00,67.3,28.2,17.72,WNW,287,0.0,0.0,23,0.00,,---,0.00,VWS V13.01,2013-07-29 14:55:00,
2013-07-29 11:00:00,67.5,27.3,17.72,NNW,330,0.0,0.0,22,0.00,,---,0.00,VWS V13.01,2013-07-29 15:00:00,
2013-07-29 11:05:00,67.6,25.2,17.72,North,6,0.0,0.0,20,0.00,,---,0.00,VWS V13.01,2013-07-29 15:05:00,
2013-07-29 11:11:00,67.8,25.3,17.72,WNW,291,0.0,0.0,20,0.00,,---,0.00,VWS V13.01,2013-07-29 15:11:00,
2013-07-29 11:16:00,68.2,25.6,17.72,WNW,288,0.0,0.0,20,0.00,,---,0.00,VWS V13.01,2013-07-29 15:16:00,
2013-07-29 11:21:00,68.5,22.0,17.72,South,191,0.0,0.0,17,0.00,,---,0.00,VWS V13.01,2013-07-29 15:21:00,
2013-07-29 11:26:00,68.9,26.2,17.72,NNW,332,0.0,0.0,20,0.00,,---,0.00,VWS V13.01,2013-07-29 15:26:00,
2013-07-29 11:31:00,69.1,26.4,17.72,West,275,4.9,4.9,20,0.00,,---,0.00,VWS V13.01,2013-07-29 15:31:00,
2013-07-29 11:36:00,69.4,22.8,17.72,WNW,298,0.0,0.0,17,0.00,,---,0.00,VWS V13.01,2013-07-29 15:36:00,
2013-07-29 11:41:00,69.6,20.0,17.72,WNW,285,0.0,0.0,15,0.00,,---,0.00,VWS V13.01,2013-07-29 15:41:00,
2013-07-29 11:46:00,69.8,18.5,17.72,SW,226,0.0,0.0,14,0.00,,---,0.00,VWS V13.01,2013-07-29 15:46:00,
2013-07-29 11:51:00,70.0,18.6,17.72,SW,219,0.0,0.0,14,0.00,,---,0.00,VWS V13.01,2013-07-29 15:51:00,
2013-07-29 11:56:00,70.2,18.8,17.72,North,0,0.0,0.0,14,0.00,,---,0.00,VWS V13.01,2013-07-29 15:56:00,
2013-07-29 12:02:00,70.2,18.8,17.72,North,6,0.0,0.0,14,0.00,,---,0.00,VWS V13.01,2013-07-29 16:02:00,
2013-07-29 12:07:00,70.2,18.8,17.72,North,353,0.0,0.0,14,0.00,,---,0.00,VWS V13.01,2013-07-29 16:07:00,
2013-07-29 12:12:00,70.2,18.8,17.72,North,3,2.7,5.8,14,0.00,,---,0.00,VWS V13.01,2013-07-29 16:12:00,
2013-07-29 12:17:00,70.3,18.9,17.72,SW,217,0.0,0.0,14,0.00,,---,0.00,VWS V13.01,2013-07-29 16:17:00,
2013-07-29 12:23:00,70.5,15.5,17.72,NNE,24,0.0,0.0,12,0.00,,---,0.00,VWS V13.01,2013-07-29 16:23:00,
2013-07-29 12:28:00,70.9,15.8,17.72,WNW,287,0.0,0.0,12,0.00,,---,0.00,VWS V13.01,2013-07-29 16:28:00,
2013-07-29 12:33:00,71.1,15.9,17.72,WSW,251,0.0,0.0,12,0.00,,---,0.00,VWS V13.01,2013-07-29 16:33:00,
2013-07-29 12:38:00,70.7,15.6,17.72,WNW,286,0.0,0.0,12,0.00,,---,0.00,VWS V13.01,2013-07-29 16:38:00,
2013-07-29 12:43:00,70.3,15.4,17.72,West,259,0.0,0.0,12,0.00,,---,0.00,VWS V13.01,2013-07-29 16:43:00,
2013-07-29 12:48:00,69.8,14.9,17.72,SW,236,2.7,2.7,12,0.00,,---,0.00,VWS V13.01,2013-07-29 16:48:00,
2013-07-29 12:54:00,69.4,14.6,17.72,WSW,251,0.0,0.0,12,0.00,,---,0.00,VWS V13.01,2013-07-29 16:54:00,
2013-07-29 12:59:00,69.1,14.4,17.72,West,277,2.2,2.2,12,0.00,,---,0.00,VWS V13.01,2013-07-29 16:59:00,
2013-07-29 13:04:00,68.7,14.1,17.72,NNE,25,0.0,0.0,12,0.00,,---,0.00,VWS V13.01,2013-07-29 17:04:00,
2013-07-29 13:09:00,68.4,13.8,17.72,SSW,197,2.2,2.2,12,0.00,,---,0.00,VWS V13.01,2013-07-29 17:09:00,
2013-07-29 13:14:00,68.2,13.7,17.72,NW,310,0.0,0.0,12,0.00,,---,0.00,VWS V13.01,2013-07-29 17:14:00,
2013-07-29 13:20:00,68.4,13.8,17.72,WSW,237,0.0,3.1,12,0.00,,---,0.00,VWS V13.01,2013-07-29 17:20:00,
2013-07-29 13:25:00,68.5,13.9,17.72,WSW,237,0.0,0.0,12,0.00,,---,0.00,VWS V13.01,2013-07-29 17:25:00,
2013-07-29 13:30:00,69.1,14.4,17.72,SW,231,3.6,3.6,12,0.00,,---,0.00,VWS V13.01,2013-07-29 17:30:00,
2013-07-29 13:35:00,69.3,14.5,17.72,WNW,296,0.0,0.0,12,0.00,,---,0.00,VWS V13.01,2013-07-29 17:35:00,
2013-07-29 13:40:00,69.6,14.8,17.72,NW,314,0.0,0.0,12,0.00,,---,0.00,VWS V13.01,2013-07-29 17:40:00,
2013-07-29 13:45:00,70.0,15.1,17.72,WSW,256,0.0,2.7,12,0.00,,---,0.00,VWS V13.01,2013-07-29 17:45:00,
2013-07-29 13:50:00,70.3,15.4,17.72,WNW,294,0.0,6.3,12,0.00,,---,0.00,VWS V13.01,2013-07-29 17:50:00,
2013-07-29 13:55:00,70.3,15.4,17.72,SSE,166,2.7,4.9,12,0.00,,---,0.00,VWS V13.01,2013-07-29 17:55:00,
2013-07-29 14:01:00,70.5,15.5,17.72,West,274,2.2,2.2,12,0.00,,---,0.00,VWS V13.01,2013-07-29 18:01:00,
2013-07-29 14:06:00,70.7,15.6,17.72,North,3,0.0,0.0,12,0.00,,---,0.00,VWS V13.01,2013-07-29 18:06:00,
2013-07-29 14:11:00,70.7,15.6,17.72,West,263,2.7,2.7,12,0.00,,---,0.00,VWS V13.01,2013-07-29 18:11:00,
2013-07-29 14:16:00,70.7,15.6,17.72,North,3,0.0,4.5,12,0.00,,---,0.00,VWS V13.01,2013-07-29 18:16:00,
2013-07-29 14:22:00,70.7,15.6,17.72,West,273,0.0,0.0,12,0.00,,---,0.00,VWS V13.01,2013-07-29 18:22:00,
2013-07-29 14:27:00,70.7,15.6,17.72,SW,214,0.0,0.0,12,0.00,,---,0.00,VWS V13.01,2013-07-29 18:27:00,
2013-07-29 14:32:00,70.5,15.5,17.72,WSW,240,0.0,0.0,12,0.00,,---,0.00,VWS V13.01,2013-07-29 18:32:00,
2013-07-29 14:38:00,70.3,15.4,17.72,WNW,302,0.0,0.0,12,0.00,,---,0.00,VWS V13.01,2013-07-29 18:38:00,
2013-07-29 14:43:00,70.7,15.6,17.72,West,276,0.0,0.0,12,0.00,,---,0.00,VWS V13.01,2013-07-29 18:43:00,
2013-07-29 14:48:00,71.2,16.1,17.72,West,274,0.0,2.7,12,0.00,,---,0.00,VWS V13.01,2013-07-29 18:48:00,
2013-07-29 14:53:00,71.4,16.2,17.72,WSW,258,0.0,0.0,12,0.00,,---,0.00,VWS V13.01,2013-07-29 18:53:00,
2013-07-29 14:58:00,71.2,16.1,17.72,NNE,16,0.0,2.7,12,0.00,,---,0.00,VWS V13.01,2013-07-29 18:58:00,
2013-07-29 15:03:00,71.4,16.2,17.72,SW,236,0.0,0.0,12,0.00,,---,0.00,VWS V13.01,2013-07-29 19:03:00,
2013-07-29 15:09:00,72.1,14.8,17.72,NW,316,0.0,2.7,11,0.00,,---,0.00,VWS V13.01,2013-07-29 19:09:00,
2013-07-29 15:14:00,72.5,15.0,17.72,West,281,0.0,0.0,11,0.00,,---,0.00,VWS V13.01,2013-07-29 19:14:00,
2013-07-29 15:19:00,72.0,14.6,17.72,WSW,252,4.0,4.0,11,0.00,,---,0.00,VWS V13.01,2013-07-29 19:19:00,
2013-07-29 15:24:00,71.4,16.2,17.72,North,8,0.0,0.0,12,0.00,,---,0.00,VWS V13.01,2013-07-29 19:24:00,
2013-07-29 15:29:00,71.1,15.9,17.72,West,270,0.0,2.7,12,0.00,,---,0.00,VWS V13.01,2013-07-29 19:29:00,
2013-07-29 15:35:00,70.7,15.6,17.72,West,267,0.0,2.7,12,0.00,,---,0.00,VWS V13.01,2013-07-29 19:35:00,
2013-07-29 15:40:00,70.3,15.4,17.72,NNW,344,0.0,0.0,12,0.00,,---,0.00,VWS V13.01,2013-07-29 19:40:00,
2013-07-29 15:45:00,70.2,15.2,17.72,NW,313,0.0,0.0,12,0.00,,---,0.00,VWS V13.01,2013-07-29 19:45:00,
2013-07-29 15:50:00,70.0,15.1,17.72,WNW,291,0.0,0.0,12,0.00,,---,0.00,VWS V13.01,2013-07-29 19:50:00,
2013-07-29 15:56:00,69.8,14.9,17.72,NNW,330,0.0,0.0,12,0.00,,---,0.00,VWS V13.01,2013-07-29 19:56:00,
2013-07-29 16:01:00,70.0,15.1,17.72,NNW,333,0.0,3.1,12,0.00,,---,0.00,VWS V13.01,2013-07-29 20:01:00,
2013-07-29 16:06:00,70.0,15.1,17.72,West,279,3.1,3.1,12,0.00,,---,0.00,VWS V13.01,2013-07-29 20:06:00,
2013-07-29 16:12:00,69.8,14.9,17.72,West,274,0.0,0.0,12,0.00,,---,0.00,VWS V13.01,2013-07-29 20:12:00,
2013-07-29 16:17:00,69.3,14.5,17.72,West,279,0.0,0.0,12,0.00,,---,0.00,VWS V13.01,2013-07-29 20:17:00,
2013-07-29 16:22:00,68.5,13.9,17.72,WSW,252,0.0,0.0,12,0.00,,---,0.00,VWS V13.01,2013-07-29 20:22:00,
2013-07-29 16:27:00,68.4,13.8,17.72,SW,223,0.0,2.2,12,0.00,,---,0.00,VWS V13.01,2013-07-29 20:27:00,
2013-07-29 16:33:00,68.7,14.1,17.72,SSW,211,0.0,0.0,12,0.00,,---,0.00,VWS V13.01,2013-07-29 20:33:00,
2013-07-29 16:38:00,69.3,14.5,17.72,West,268,4.0,4.0,12,0.00,,---,0.00,VWS V13.01,2013-07-29 20:38:00,
2013-07-29 16:43:00,69.3,14.5,17.72,SSW,206,0.0,0.0,12,0.00,,---,0.00,VWS V13.01,2013-07-29 20:43:00,
2013-07-29 16:48:00,68.9,14.2,17.72,NNW,346,0.0,0.0,12,0.00,,---,0.00,VWS V13.01,2013-07-29 20:48:00,
2013-07-29 16:53:00,68.4,13.8,17.72,NNE,13,0.0,0.0,12,0.00,,---,0.00,VWS V13.01,2013-07-29 20:53:00,
2013-07-29 16:58:00,68.2,13.7,17.72,West,264,0.0,0.0,12,0.00,,---,0.00,VWS V13.01,2013-07-29 20:58:00,
2013-07-29 17:03:00,68.0,13.5,17.72,West,277,2.7,2.7,12,0.00,,---,0.00,VWS V13.01,2013-07-29 21:03:00,
2013-07-29 17:08:00,68.0,13.5,17.72,WNW,298,0.0,0.0,12,0.00,,---,0.00,VWS V13.01,2013-07-29 21:08:00,
2013-07-29 17:14:00,68.2,18.8,17.72,WNW,292,0.0,0.0,15,0.00,,---,0.00,VWS V13.01,2013-07-29 21:14:00,
2013-07-29 17:19:00,68.4,19.0,17.72,SW,225,2.2,2.2,15,0.00,,---,0.00,VWS V13.01,2013-07-29 21:19:00,
2013-07-29 17:24:00,69.1,19.5,17.72,WNW,301,0.0,0.0,15,0.00,,---,0.00,VWS V13.01,2013-07-29 21:24:00,
2013-07-29 17:29:00,69.4,19.8,17.72,WNW,292,0.0,0.0,15,0.00,,---,0.00,VWS V13.01,2013-07-29 21:29:00,
2013-07-29 17:34:00,69.6,20.0,17.72,NNW,346,0.0,0.0,15,0.00,,---,0.00,VWS V13.01,2013-07-29 21:34:00,
2013-07-29 17:39:00,69.6,20.0,17.72,South,186,0.0,0.0,15,0.00,,---,0.00,VWS V13.01,2013-07-29 21:39:00,
2013-07-29 17:44:00,69.4,19.8,17.72,SW,221,0.0,0.0,15,0.00,,---,0.00,VWS V13.01,2013-07-29 21:44:00,
2013-07-29 17:50:00,69.3,19.7,17.72,West,265,0.0,0.0,15,0.00,,---,0.00,VWS V13.01,2013-07-29 21:50:00,
2013-07-29 17:55:00,69.1,19.5,17.72,WSW,254,0.0,2.2,15,0.00,,---,0.00,VWS V13.01,2013-07-29 21:55:00,
2013-07-29 18:00:00,68.9,19.4,17.72,SW,232,0.0,0.0,15,0.00,,---,0.00,VWS V13.01,2013-07-29 22:00:00,
2013-07-29 18:05:00,68.7,19.2,17.72,West,269,0.0,0.0,15,0.00,,---,0.00,VWS V13.01,2013-07-29 22:05:00,
2013-07-29 18:11:00,68.5,19.1,17.72,West,272,0.0,0.0,15,0.00,,---,0.00,VWS V13.01,2013-07-29 22:11:00,
2013-07-29 18:16:00,68.5,19.1,17.72,West,272,0.0,0.0,15,0.00,,---,0.00,VWS V13.01,2013-07-29 22:16:00,
2013-07-29 18:21:00,68.5,19.1,17.72,West,274,0.0,0.0,15,0.00,,---,0.00,VWS V13.01,2013-07-29 22:21:00,
2013-07-29 18:26:00,68.5,19.1,17.72,SSE,155,0.0,0.0,15,0.00,,---,0.00,VWS V13.01,2013-07-29 22:26:00,
2013-07-29 18:31:00,68.7,19.2,17.72,NNW,341,2.2,2.2,15,0.00,,---,0.00,VWS V13.01,2013-07-29 22:31:00,
2013-07-29 18:36:00,68.7,19.2,17.72,WNW,288,0.0,0.0,15,0.00,,---,0.00,VWS V13.01,2013-07-29 22:36:00,
2013-07-29 18:42:00,68.7,19.2,17.72,WNW,298,0.0,0.0,15,0.00,,---,0.00,VWS V13.01,2013-07-29 22:42:00,
2013-07-29 18:48:00,68.9,19.4,17.72,WNW,295,0.0,0.0,15,0.00,,---,0.00,VWS V13.01,2013-07-29 22:48:00,
2013-07-29 18:53:00,68.9,19.4,17.72,WNW,299,0.0,2.7,15,0.00,,---,0.00,VWS V13.01,2013-07-29 22:53:00,
2013-07-29 19:00:00,68.9,19.4,17.72,SW,234,0.0,0.0,15,0.00,,---,0.00,VWS V13.01,2013-07-29 23:00:00,
2013-07-29 19:05:00,69.1,19.5,17.72,SSW,210,2.7,4.0,15,0.00,,---,0.00,VWS V13.01,2013-07-29 23:05:00,
2013-07-29 19:10:00,69.3,19.7,17.72,NW,314,0.0,2.2,15,0.00,,---,0.00,VWS V13.01,2013-07-29 23:10:00,
2013-07-29 19:15:00,69.4,19.8,17.72,South,170,0.0,0.0,15,0.00,,---,0.00,VWS V13.01,2013-07-29 23:15:00,
2013-07-29 19:21:00,69.6,20.0,17.72,NNE,21,2.2,2.2,15,0.00,,---,0.00,VWS V13.01,2013-07-29 23:21:00,
2013-07-29 19:26:00,69.6,20.0,17.72,ENE,65,0.0,2.2,15,0.00,,---,0.00,VWS V13.01,2013-07-29 23:26:00,
2013-07-29 19:31:00,69.4,19.8,17.72,WNW,286,0.0,0.0,15,0.00,,---,0.00,VWS V13.01,2013-07-29 23:31:00,
2013-07-29 19:36:00,69.4,19.8,17.72,WNW,289,0.0,0.0,15,0.00,,---,0.00,VWS V13.01,2013-07-29 23:36:00,
2013-07-29 19:42:00,69.3,19.7,17.72,WNW,291,0.0,0.0,15,0.00,,---,0.00,VWS V13.01,2013-07-29 23:42:00,
2013-07-29 19:47:00,69.1,19.5,17.72,SSW,207,0.0,0.0,15,0.00,,---,0.00,VWS V13.01,2013-07-29 23:47:00,
2013-07-29 19:52:00,69.1,19.5,17.72,West,267,0.0,0.0,15,0.00,,---,0.00,VWS V13.01,2013-07-29 23:52:00,
2013-07-29 19:57:00,68.9,19.4,17.72,SW,227,0.0,0.0,15,0.00,,---,0.00,VWS V13.01,2013-07-29 23:57:00,
2013-07-29 20:03:00,68.9,19.4,17.72,West,265,0.0,3.1,15,0.00,,---,0.00,VWS V13.01,2013-07-30 00:03:00,
2013-07-29 20:08:00,68.7,19.2,17.72,NE,41,0.0,0.0,15,0.00,,---,0.00,VWS V13.01,2013-07-30 00:08:00,
2013-07-29 20:13:00,68.5,19.1,17.72,NNE,30,0.0,0.0,15,0.00,,---,0.00,VWS V13.01,2013-07-30 00:13:00,
2013-07-29 20:18:00,68.4,19.0,17.72,SW,231,0.0,0.0,15,0.00,,---,0.00,VWS V13.01,2013-07-30 00:18:00,
2013-07-29 20:23:00,68.2,18.8,17.72,WSW,239,0.0,0.0,15,0.00,,---,0.00,VWS V13.01,2013-07-30 00:23:00,
2013-07-29 20:28:00,68.0,18.7,17.72,NNE,28,0.0,2.2,15,0.00,,---,0.00,VWS V13.01,2013-07-30 00:28:00,
2013-07-29 20:33:00,68.0,18.7,17.72,West,272,0.0,0.0,15,0.00,,---,0.00,VWS V13.01,2013-07-30 00:33:00,
2013-07-29 20:38:00,67.8,18.5,17.72,North,353,0.0,0.0,15,0.00,,---,0.00,VWS V13.01,2013-07-30 00:38:00,
2013-07-29 20:44:00,67.8,18.5,17.72,WSW,237,2.7,2.7,15,0.00,,---,0.00,VWS V13.01,2013-07-30 00:44:00,
2013-07-29 20:49:00,67.6,18.4,17.72,West,264,0.0,0.0,15,0.00,,---,0.00,VWS V13.01,2013-07-30 00:49:00,
2013-07-29 20:54:00,67.6,18.4,17.72,West,264,0.0,0.0,15,0.00,,---,0.00,VWS V13.01,2013-07-30 00:54:00,
2013-07-29 20:59:00,67.5,18.2,17.72,SW,214,0.0,0.0,15,0.00,,---,0.00,VWS V13.01,2013-07-30 00:59:00,
2013-07-29 21:05:00,67.5,18.2,17.72,SSW,211,0.0,0.0,15,0.00,,---,0.00,VWS V13.01,2013-07-30 01:05:00,
2013-07-29 21:10:00,67.5,18.2,17.72,SW,222,0.0,0.0,15,0.00,,---,0.00,VWS V13.01,2013-07-30 01:10:00,
2013-07-29 21:15:00,67.5,18.2,17.72,South,170,0.0,0.0,15,0.00,,---,0.00,VWS V13.01,2013-07-30 01:15:00,
2013-07-29 21:20:00,67.5,18.2,17.72,SSE,167,0.0,0.0,15,0.00,,---,0.00,VWS V13.01,2013-07-30 01:20:00,
2013-07-29 21:25:00,67.5,18.2,17.72,South,180,0.0,2.7,15,0.00,,---,0.00,VWS V13.01,2013-07-30 01:25:00,
2013-07-29 21:30:00,67.5,18.2,17.72,South,180,0.0,0.0,15,0.00,,---,0.00,VWS V13.01,2013-07-30 01:30:00,
2013-07-29 21:35:00,67.3,18.1,17.72,South,180,0.0,0.0,15,0.00,,---,0.00,VWS V13.01,2013-07-30 01:35:00,
2013-07-29 21:40:00,67.1,17.9,17.72,South,186,0.0,0.0,15,0.00,,---,0.00,VWS V13.01,2013-07-30 01:40:00,
2013-07-29 21:45:00,67.1,17.9,17.72,South,187,0.0,0.0,15,0.00,,---,0.00,VWS V13.01,2013-07-30 01:45:00,
2013-07-29 21:50:00,66.9,20.7,17.72,South,187,0.0,0.0,17,0.00,,---,0.00,VWS V13.01,2013-07-30 01:50:00,
2013-07-29 21:56:00,66.9,20.7,17.72,SW,218,0.0,0.0,17,0.00,,---,0.00,VWS V13.01,2013-07-30 01:56:00,
2013-07-29 22:01:00,66.7,20.6,17.72,SW,225,0.0,0.0,17,0.00,,---,0.00,VWS V13.01,2013-07-30 02:01:00,
2013-07-29 22:07:00,66.7,20.6,17.72,SW,230,0.0,0.0,17,0.00,,---,0.00,VWS V13.01,2013-07-30 02:07:00,
2013-07-29 22:12:00,66.7,20.6,17.72,West,259,0.0,0.0,17,0.00,,---,0.00,VWS V13.01,2013-07-30 02:12:00,
2013-07-29 22:17:00,66.6,20.4,17.72,SSW,192,0.0,0.0,17,0.00,,---,0.00,VWS V13.01,2013-07-30 02:17:00,
2013-07-29 22:23:00,66.6,20.4,17.72,SSW,201,0.0,2.7,17,0.00,,---,0.00,VWS V13.01,2013-07-30 02:23:00,
2013-07-29 22:28:00,66.6,20.4,17.72,SW,222,0.0,0.0,17,0.00,,---,0.00,VWS V13.01,2013-07-30 02:28:00,
2013-07-29 22:33:00,66.6,20.4,17.72,SSE,163,0.0,0.0,17,0.00,,---,0.00,VWS V13.01,2013-07-30 02:33:00,
2013-07-29 22:38:00,66.7,20.6,17.72,SSW,204,0.0,0.0,17,0.00,,---,0.00,VWS V13.01,2013-07-30 02:38:00,
2013-07-29 22:43:00,66.7,20.6,17.72,SSW,193,0.0,0.0,17,0.00,,---,0.00,VWS V13.01,2013-07-30 02:43:00,
2013-07-29 22:48:00,66.7,20.6,17.72,NNW,334,0.0,0.0,17,0.00,,---,0.00,VWS V13.01,2013-07-30 02:48:00,
2013-07-29 22:53:00,66.6,20.4,17.72,WSW,257,0.0,0.0,17,0.00,,---,0.00,VWS V13.01,2013-07-30 02:53:00,
2013-07-29 22:58:00,66.6,24.3,17.72,WSW,246,0.0,0.0,20,0.00,,---,0.00,VWS V13.01,2013-07-30 02:58:00,
2013-07-29 23:03:00,66.6,24.3,17.72,WSW,253,0.0,0.0,20,0.00,,---,0.00,VWS V13.01,2013-07-30 03:03:00,
2013-07-29 23:08:00,66.4,24.1,17.72,NNW,346,2.2,2.2,20,0.00,,---,0.00,VWS V13.01,2013-07-30 03:08:00,
2013-07-29 23:14:00,66.4,24.1,17.72,WNW,282,0.0,0.0,20,0.00,,---,0.00,VWS V13.01,2013-07-30 03:14:00,
2013-07-29 23:19:00,66.2,24.0,17.72,West,271,0.0,0.0,20,0.00,,---,0.00,VWS V13.01,2013-07-30 03:19:00,
2013-07-29 23:24:00,66.2,24.0,17.72,West,271,0.0,0.0,20,0.00,,---,0.00,VWS V13.01,2013-07-30 03:24:00,
2013-07-29 23:30:00,66.2,24.0,17.72,West,271,0.0,0.0,20,0.00,,---,0.00,VWS V13.01,2013-07-30 03:30:00,
2013-07-29 23:35:00,66.0,27.2,17.72,West,271,0.0,0.0,23,0.00,,---,0.00,VWS V13.01,2013-07-30 03:35:00,
2013-07-29 23:40:00,66.0,27.2,17.72,West,271,0.0,0.0,23,0.00,,---,0.00,VWS V13.01,2013-07-30 03:40:00,
2013-07-29 23:45:00,65.8,27.0,17.72,West,271,0.0,0.0,23,0.00,,---,0.00,VWS V13.01,2013-07-30 03:45:00,
2013-07-29 23:50:00,65.8,27.0,17.72,West,271,0.0,0.0,23,0.00,,---,0.00,VWS V13.01,2013-07-30 03:50:00,
2013-07-29 23:55:00,65.7,26.9,17.72,West,271,0.0,0.0,23,0.00,,---,0.00,VWS V13.01,2013-07-30 03:55:00,